Date,TemperatureHighF,TemperatureAvgF,TemperatureLowF,DewpointHighF,DewpointAvgF,DewpointLowF,HumidityHigh,HumidityAvg,HumidityLow,PressureMaxIn,PressureMinIn,WindSpeedMaxMPH,WindSpeedAvgMPH,GustSpeedMaxMPH,PrecipitationSumIn
2013-2-3,42,34,23,28,23,15,73,66,55,30.18,29.77,11,5,11,0.12
2013-2-4,36,29,24,28,22,19,84,74,65,29.99,29.74,11,4,11,0.00
2013-2-5,47,36,28,33,27,23,84,71,48,30.04,29.80,10,4,10,0.00
2013-2-6,51,41,30,37,31,24,80,70,55,30.04,29.81,12,3,12,0.00
2013-2-7,41,35,31,34,29,24,84,78,73,30.20,29.85,13,5,13,0.00
2013-2-8,35,31,27,26,24,22,84,77,68,30.30,30.11,16,5,16,0.00
2013-2-9,47,38,29,36,31,25,86,78,66,30.13,29.66,14,9,14,0.00
2013-2-10,46,36,31,42,28,22,91,74,69,29.77,29.24,18,9,27,0.02
2013-2-11,39,32,24,25,22,18,76,69,56,30.13,29.77,26,5,28,0.00
2013-2-12,47,33,22,28,21,16,81,65,43,30.12,29.87,11,2,20,0.00
2013-2-13,52,38,24,33,25,18,79,63,43,29.88,29.70,12,2,17,0.00
2013-2-14,47,38,24,32,26,15,80,65,43,30.25,29.76,32,6,32,0.00
2013-2-15,38,26,18,22,16,10,80,67,43,30.33,30.25,12,3,15,0.00
2013-2-16,38,26,13,26,18,6,78,70,59,30.30,29.98,14,4,17,0.00
2013-2-17,52,38,26,35,27,19,77,65,50,29.98,29.54,22,6,31,0.00
2013-2-18,44,33,23,32,24,13,82,70,56,30.04,29.52,27,8,31,0.00
2013-2-19,25,17,11,14,4,0,70,56,36,30.36,30.04,22,7,24,0.00
2013-2-20,27,18,6,7,3,-3,66,52,41,30.37,30.18,10,4,15,0.00
2013-2-21,27,23,22,21,14,6,86,67,48,30.21,29.81,21,7,25,0.00
2013-2-22,32,23,13,20,15,6,84,73,58,30.01,29.81,12,4,17,0.00
2013-2-23,39,23,6,26,15,-1,79,71,60,29.99,29.80,14,3,17,0.02
2013-2-24,47,34,24,30,25,19,82,70,50,30.05,29.86,9,2,13,0.00
2013-2-25,38,31,27,28,25,22,88,78,67,30.06,29.90,15,6,19,0.00
2013-2-26,35,30,26,29,26,23,89,83,76,29.90,29.76,20,7,20,0.00
2013-2-27,40,32,26,26,23,20,83,72,55,30.08,29.87,18,8,28,0.00
2013-2-28,39,30,27,26,22,20,79,73,60,30.21,30.07,17,7,25,0.00